Selinsgrove, PA

2:31 PM EDT on October 18, 2017 (GMT -0400)
Penn Valley

Weather History for KSEG - January, 2014

Change the Weather History Date:

Saturday, January 4, 2014

  Actual Average (KIPT) Record (KIPT)
Temperature  
Mean Temperature 12 °F -  
Max Temperature 25 °F 35 °F 64 °F (1950)
Min Temperature -2 °F 21 °F -12 °F (1981)
Degree Days  
Heating Degree Days 54    
Moisture  
Dew Point 3 °F    
Average Humidity 68    
Maximum Humidity 87    
Minimum Humidity 45    
Precipitation  
Precipitation 0.00 in - - ()
Sea Level Pressure  
Sea Level Pressure 30.38 in    
Wind  
Wind Speed 3 mph (SSW)    
Max Wind Speed 13 mph    
Max Gust Speed 17 mph    
Visibility 10 miles    
Events      
Averages and records for this station are not official NWS values.
T = Trace of Precipitation, MM = Missing Value Source: NWS Daily Summary

Daily Weather History Graph

Daily Weather History Graph

Search for Another Location

Airport or City:

Trip Planner

Search our weather history database for the weather conditions in past years. The results will help you decide how hot, cold, wet, or windy it might be!

Date:

Astronomy

Jan. 04, 2014 Rise Set
Actual Time 7:31 AM EST 4:53 PM EST
Civil Twilight 7:01 AM EST 5:23 PM EST
Nautical Twilight 6:26 AM EST 5:58 PM EST
Astronomical Twilight 5:53 AM EST 6:31 PM EST
Moon 9:34 AM EST (1/4) 9:12 PM EST (1/4)
Length of Visible Light 10h 22m
Length of Day
9h 21m
Waxing Crescent, 15% of the Moon is Illuminated
Jan 4
Waxing Crescent
Jan 7
First Quarter
Jan 15
Full
Jan 24
Last Quarter
Jan 30
New

Hourly Weather History & Observations

Time (EST) Temp. Windchill Dew Point Humidity Pressure Visibility Wind Dir Wind Speed Gust Speed Precip Events Conditions
12:53 AM -2.0 °F -10.1 °F -5.1 °F 87% 30.47 in 10.0 mi NNW 3.5 mph - N/A   Clear
1:53 AM -0.9 °F - -4.0 °F 87% 30.46 in 10.0 mi Calm Calm - N/A   Clear
2:53 AM 1.0 °F - -2.9 °F 83% 30.48 in 10.0 mi Calm Calm - N/A   Mostly Cloudy
3:53 AM 5.0 °F - -0.0 °F 80% 30.45 in 10.0 mi Calm Calm - N/A   Overcast
4:53 AM 1.9 °F - -2.0 °F 83% 30.46 in 10.0 mi Calm Calm - N/A   Clear
5:53 AM 3.0 °F - -0.0 °F 87% 30.45 in 10.0 mi Calm Calm - N/A   Clear
6:53 AM 1.9 °F - -2.9 °F 80% 30.46 in 10.0 mi Calm Calm - N/A   Clear
7:53 AM -0.0 °F - -4.0 °F 83% 30.48 in 8.0 mi Calm Calm - N/A   Clear
8:53 AM 8.1 °F - 1.9 °F 76% 30.48 in 10.0 mi Calm Calm - N/A   Clear
9:53 AM 16.0 °F 6.3 °F 3.0 °F 57% 30.46 in 10.0 mi SW 6.9 mph - N/A   Clear
10:53 AM 19.0 °F 6.8 °F 3.9 °F 52% 30.44 in 10.0 mi South 11.5 mph 17.3 mph N/A   Clear
11:53 AM 21.0 °F 11.4 °F 5.0 °F 50% 30.40 in 10.0 mi South 8.1 mph - N/A   Clear
12:53 PM 23.0 °F 11.1 °F 6.1 °F 48% 30.35 in 10.0 mi South 12.7 mph - N/A   Clear
1:53 PM 24.1 °F 13.7 °F 6.1 °F 46% 30.32 in 10.0 mi South 10.4 mph - N/A   Clear
2:53 PM 25.0 °F 14.8 °F 6.1 °F 45% 30.31 in 10.0 mi South 10.4 mph - N/A   Clear
3:53 PM 24.1 °F 18.2 °F 6.1 °F 46% 30.31 in 10.0 mi SSW 4.6 mph - N/A   Clear
4:53 PM 25.0 °F 18.1 °F 7.0 °F 46% 30.30 in 10.0 mi SSW 5.8 mph - N/A   Clear
5:53 PM 23.0 °F - 7.0 °F 50% 30.30 in 10.0 mi Calm Calm - N/A   Clear
6:53 PM 21.9 °F 17.2 °F 7.0 °F 53% 30.30 in 10.0 mi SSW 3.5 mph - N/A   Clear
7:53 PM 19.0 °F - 7.0 °F 59% 30.30 in 10.0 mi Calm Calm - N/A   Clear
8:53 PM 10.0 °F - 5.0 °F 80% 30.30 in 10.0 mi Calm Calm - N/A   Clear
9:53 PM 10.9 °F - 7.0 °F 84% 30.28 in 10.0 mi Calm Calm - N/A   Clear
10:53 PM 10.0 °F 3.6 °F 7.0 °F 87% 30.28 in 10.0 mi NW 3.5 mph - N/A   Clear
11:53 PM 7.0 °F - 3.9 °F 87% 30.28 in 9.0 mi Calm Calm - N/A   Clear